Wind_Speed
10 12 14 16 21 26 29 31 32 33 32 31 32 34 35 34 35 36 37 37 36 36 37 34 28 24 26 29 32 33 32 33 35 34 32 32 35 40 41 41 41 42 41 41 41 40 40 40 40 39 38 38 37 36 37 36 35 35 34 33 32 30 29 29 30 28 24 22 21 19 16 15 17 19 19 19 18 17 17 18 19 21 22 22 22
8 11 12 15 18 21 24 27 30 32 33 33 32 33 35 38 39 39 38 38 39 38 38 34 29 29 32 31 32 34 32 29 30 31 30 30 32 37 41 42 43 42 42 43 43 42 42 41 40 39 39 39 39 39 38 38 38 37 36 34 33 31 30 30 30 29 26 24 23 22 20 18 18 18 20 20 18 17 18 17 18 21 23 24 24
6 8 8 11 14 16 19 22 25 28 31 32 32 32 34 38 40 40 39 39 40 41 38 35 33 34 36 35 35 36 35 32 29 28 28 28 31 34 38 41 44 44 44 45 45 45 43 42 42 40 40 40 41 40 39 39 39 39 38 36 35 33 31 30 30 30 28 26 25 24 23 22 20 19 19 19 19 19 19 18 17 18 20 23 25
5 7 7 8 10 12 14 15 18 22 26 29 30 30 32 35 38 40 41 41 42 42 41 38 37 37 38 39 40 40 40 38 32 29 27 27 30 34 36 39 42 45 46 46 46 46 45 45 43 42 41 41 41 42 41 41 41 41 40 38 37 35 33 31 30 30 29 28 26 25 24 23 22 21 20 20 21 21 20 19 19 19 19 20 23
6 7 9 9 10 12 13 14 15 16 19 22 24 27 29 32 35 37 41 43 44 44 43 41 40 41 42 44 46 44 43 43 39 34 32 31 32 34 36 38 40 41 44 47 48 48 48 47 45 43 43 43 43 43 43 42 42 42 42 40 39 37 34 32 31 30 30 30 28 26 26 25 24 23 21 22 23 23 22 22 22 21 20 20 20
8 8 9 11 12 12 13 14 16 16 17 18 19 20 22 24 25 28 33 37 40 42 42 40 41 43 44 46 49 48 46 45 43 39 36 35 34 34 35 38 39 39 41 45 48 50 51 50 48 45 44 45 45 45 44 43 44 44 43 42 40 38 36 34 32 31 32 31 29 28 28 27 27 26 24 23 24 25 24 23 24 24 24 23 22
10 10 10 11 12 12 12 13 14 15 17 18 19 19 19 19 18 20 23 27 31 34 36 37 39 42 44 45 47 48 47 46 45 42 39 37 37 36 35 37 39 40 39 40 45 50 52 53 52 49 47 46 46 46 45 44 45 45 45 44 42 40 38 36 34 33 33 33 31 30 30 29 29 28 26 24 25 26 26 26 27 27 26 25 24
12 12 12 12 12 12 13 13 13 14 15 16 18 19 20 20 19 19 19 21 24 27 30 33 35 38 42 44 46 48 48 47 46 45 44 42 40 40 39 39 40 41 41 40 42 47 51 54 55 54 51 48 47 47 46 45 45 45 45 45 45 43 40 38 36 36 35 35 33 32 30 30 30 31 29 27 29 29 28 29 29 27 27 26 25
13 13 13 13 13 13 14 15 15 15 16 16 17 18 19 19 20 20 21 21 22 23 25 28 31 34 37 39 43 45 46 46 45 45 46 46 45 45 44 44 43 42 43 43 43 45 48 52 55 56 56 54 50 49 47 45 45 46 46 46 46 45 43 40 38 38 38 37 36 34 32 32 33 33 32 32 32 30 28 28 28 27 27 28 27
13 13 13 13 13 13 14 16 16 16 17 17 17 18 19 19 19 20 21 22 23 23 23 25 28 32 35 37 39 42 44 45 45 45 46 47 47 48 48 48 47 46 46 46 46 46 47 50 54 57 59 58 56 52 49 46 46 46 46 47 47 46 45 43 41 41 40 39 38 36 34 34 34 34 34 33 32 32 31 30 29 27 27 29 29
15 14 14 14 14 14 15 16 18 18 19 19 19 19 20 19 19 19 20 22 23 23 24 25 26 29 32 35 38 41 43 45 46 46 45 45 46 47 49 50 50 50 49 48 47 46 46 47 50 55 58 59 60 57 52 49 47 46 46 47 48 48 46 44 43 42 42 41 39 38 37 37 35 33 34 34 33 33 33 32 31 30 30 31 31
17 16 16 16 15 15 15 17 18 19 20 20 21 21 22 22 22 21 22 22 23 24 25 26 27 28 29 32 36 39 42 43 44 45 45 44 44 45 48 50 51 51 51 49 46 45 46 47 49 53 56 59 60 59 57 53 49 47 46 46 48 49 48 46 45 43 43 42 40 39 39 37 35 33 33 33 33 33 33 33 33 32 32 33 33
19 19 19 18 18 17 17 17 17 18 19 20 21 22 23 25 25 25 26 25 26 27 27 27 28 29 30 31 33 36 38 40 41 42 43 43 42 42 44 48 50 51 51 50 48 46 48 51 53 55 56 58 58 58 58 57 53 49 48 46 47 49 49 49 47 45 43 41 41 41 40 37 35 34 31 30 31 32 33 33 33 33 34 33 31
20 21 21 20 20 19 18 19 19 20 20 21 22 23 23 25 27 28 29 29 29 29 30 30 30 30 31 32 32 34 36 37 38 39 41 41 41 41 42 45 49 51 52 53 53 49 48 50 53 53 53 56 58 57 56 57 55 52 50 49 49 48 49 50 49 47 44 43 43 42 40 38 36 33 30 28 30 31 31 31 30 31 31 29 27
19 20 21 22 22 21 22 23 23 23 24 25 25 26 26 27 28 29 30 31 31 31 31 32 33 33 34 33 33 34 34 35 36 37 39 41 42 43 45 47 49 51 53 55 54 50 47 47 49 51 51 54 56 56 55 55 56 55 53 53 51 49 49 51 51 48 46 45 43 42 40 39 36 33 30 29 28 28 28 28 28 30 31 30 29
21 20 21 22 23 25 25 26 27 27 28 28 29 30 30 31 31 32 33 34 34 33 31 31 32 35 36 36 37 37 35 34 34 36 38 40 43 45 46 47 49 52 54 54 53 50 47 48 50 52 53 53 53 53 54 54 55 56 57 56 53 52 51 51 51 49 47 45 43 41 40 37 35 33 31 29 27 26 25 27 30 33 34 36 36
25 24 23 23 24 26 27 28 30 30 31 31 32 32 32 33 33 33 35 37 38 38 36 33 32 33 36 38 39 41 40 37 35 36 37 39 42 45 47 48 49 52 53 54 52 51 50 50 51 53 54 56 52 48 50 55 56 57 59 57 55 55 53 51 51 49 47 45 42 39 38 36 34 33 32 31 30 26 25 29 33 34 35 38 40
27 27 27 27 27 27 28 29 31 32 33 33 33 33 32 32 32 32 34 36 38 40 41 39 36 34 35 37 39 42 44 43 40 38 38 39 41 44 47 50 52 52 53 54 54 54 53 52 53 54 54 55 52 45 47 55 58 57 58 58 56 57 56 53 53 51 48 46 43 40 39 38 37 36 35 34 33 31 31 33 33 33 35 39 40
28 29 29 29 29 29 30 30 32 33 34 34 33 33 32 32 32 32 33 35 37 38 40 43 43 40 37 37 38 41 45 47 45 43 40 39 40 43 46 50 54 55 55 56 56 57 56 55 55 55 53 53 52 47 46 53 57 56 56 57 57 57 57 56 54 53 51 48 45 43 42 41 40 39 38 38 37 36 35 35 33 34 36 38 38
29 29 30 30 30 30 30 31 31 32 33 33 32 32 32 32 33 33 35 36 37 37 38 40 43 45 43 41 41 41 44 47 48 48 45 42 41 42 45 50 53 55 56 57 57 58 58 57 58 57 54 52 55 55 52 53 55 53 52 56 58 57 56 56 55 54 52 50 47 45 43 42 42 41 41 40 40 40 39 37 36 36 37 37 37
29 30 30 30 30 31 31 31 32 32 32 32 32 33 33 34 34 35 37 38 37 37 37 38 40 43 45 46 45 43 43 45 47 48 48 47 44 43 45 49 50 52 55 58 59 59 59 58 57 56 55 54 56 59 58 55 55 52 49 52 57 57 55 54 55 54 53 51 50 48 46 45 44 43 43 44 43 42 42 40 38 37 38 38 38
28 29 30 30 31 32 32 32 32 32 31 31 32 34 35 35 35 36 37 37 36 35 35 36 38 40 43 45 47 46 43 42 44 46 48 49 49 46 46 47 48 49 52 57 60 61 60 59 56 54 54 54 56 59 58 54 53 53 51 51 55 56 55 54 54 53 52 51 51 50 49 47 47 46 46 46 45 45 44 42 40 39 40 40 40
28 28 29 29 30 32 33 33 33 33 32 32 32 34 35 36 35 34 34 34 34 33 33 33 36 39 42 44 47 49 47 43 43 45 47 49 50 50 48 46 45 47 50 55 59 61 60 58 55 53 52 53 54 55 53 49 49 53 53 53 53 55 56 55 52 50 49 49 49 49 49 48 47 46 45 45 46 45 44 42 41 40 40 41 41
29 28 28 29 30 32 34 35 35 34 33 32 33 33 34 35 35 35 33 33 33 33 33 34 36 38 41 43 45 48 50 49 46 45 46 47 49 50 50 48 44 45 49 53 56 59 58 55 51 50 51 52 51 49 46 45 48 51 52 50 50 53 55 52 47 46 48 48 48 48 48 47 46 44 42 42 42 42 41 40 40 40 40 41 42
31 29 28 29 31 34 36 36 36 34 33 32 33 34 35 37 38 37 35 33 33 34 35 36 38 39 40 41 43 45 47 50 50 48 47 47 48 48 49 49 46 44 47 51 54 57 56 52 49 48 48 50 50 46 43 42 45 49 50 47 44 47 51 49 44 46 49 50 50 49 48 47 46 43 40 38 37 37 36 36 35 34 35 37 40
32 30 29 30 33 36 36 36 35 34 32 31 32 34 36 38 40 39 37 35 34 36 37 38 39 40 40 40 40 41 43 46 49 49 47 47 48 48 47 47 46 45 45 47 51 54 54 51 49 46 45 47 49 46 41 39 41 45 49 49 43 42 45 46 45 48 51 52 52 51 48 47 45 42 39 37 35 34 33 32 31 29 28 29 32
33 32 30 32 35 37 37 36 34 32 31 31 33 35 35 36 37 37 36 36 36 37 38 39 39 40 41 39 37 38 40 41 44 44 44 44 47 48 46 45 44 45 46 46 48 52 53 52 49 46 44 47 48 45 39 37 38 41 46 50 48 43 41 41 42 46 50 51 51 51 48 44 43 41 39 38 35 33 31 30 29 28 27 25 26
33 33 32 33 36 37 35 34 33 31 31 32 34 35 35 35 36 36 35 35 35 36 37 38 38 39 40 40 38 38 40 42 43 43 42 42 44 45 45 45 44 44 47 48 47 49 51 49 48 47 47 48 50 48 43 40 40 40 41 46 50 50 45 41 39 42 47 48 49 49 46 43 41 40 39 38 35 32 31 29 28 28 26 25 26
32 33 33 34 36 35 32 30 30 30 31 32 33 33 33 34 35 36 35 33 33 35 37 38 38 38 39 41 41 41 42 44 44 44 43 43 44 43 42 44 44 43 45 46 46 48 49 49 49 50 50 50 50 51 49 44 43 44 44 45 48 49 46 42 40 40 43 45 47 47 44 41 41 39 37 37 35 32 31 31 30 29 28 28 30
32 34 34 35 36 34 31 28 27 28 29 30 32 32 32 32 32 32 32 30 29 30 33 36 36 36 38 41 43 43 44 44 42 41 42 44 45 43 40 40 40 39 40 44 48 50 51 51 51 51 52 51 50 51 50 47 45 46 47 49 50 48 46 44 42 39 39 42 45 44 41 39 39 38 36 36 35 34 33 32 31 29 28 29 32
33 34 35 35 35 33 30 27 25 26 27 27 28 29 31 34 34 31 26 24 24 25 29 32 33 34 36 40 43 44 44 44 42 41 41 41 40 37 35 35 35 35 37 44 51 53 52 51 51 50 50 49 49 49 50 49 47 46 47 50 52 51 49 48 45 41 40 42 43 41 40 38 37 36 36 35 35 35 35 33 31 30 30 31 33
33 35 35 35 34 32 29 27 24 25 25 25 25 25 27 32 35 33 30 24 20 23 27 30 31 32 34 37 41 45 47 47 44 42 43 43 40 35 32 32 34 34 37 44 50 51 51 53 54 54 53 52 50 50 50 51 51 49 49 50 51 51 52 52 49 45 43 42 42 41 39 38 37 37 36 36 36 35 34 33 32 32 32 32 34
33 35 35 34 34 32 30 27 25 24 24 23 23 23 24 28 31 32 33 32 28 24 25 28 29 30 32 34 37 41 45 48 47 45 45 47 46 40 34 32 34 35 38 44 49 50 51 54 56 56 56 55 52 50 51 52 53 51 50 50 48 48 51 52 49 45 43 43 42 40 38 37 36 36 36 35 35 34 33 33 32 31 31 33 34
32 34 33 33 33 32 30 28 26 24 23 22 21 21 22 24 26 28 30 33 35 32 26 24 23 25 29 34 36 37 40 43 46 46 46 47 47 42 36 34 35 37 38 42 47 49 50 53 54 54 54 54 52 51 51 51 51 49 47 45 44 45 50 51 48 43 41 41 41 38 36 36 35 33 32 31 30 32 35 35 32 30 30 32 32
31 32 32 32 32 31 30 28 26 24 23 21 20 20 20 21 23 26 27 28 29 29 25 19 18 20 26 30 33 34 34 36 39 41 40 40 38 36 35 36 39 40 39 40 43 46 48 50 51 51 52 52 51 50 50 51 49 45 41 40 39 42 47 51 49 42 38 39 39 36 34 33 32 31 30 27 26 28 32 33 30 29 28 29 29
30 32 33 32 31 31 31 29 28 26 23 21 19 19 19 20 21 24 27 26 25 25 24 18 13 16 21 26 31 35 35 33 33 33 34 34 34 35 38 40 41 42 40 38 38 41 44 46 47 47 48 49 48 45 45 47 49 47 43 42 40 37 36 39 40 38 36 37 36 33 29 27 27 28 29 27 25 27 30 29 28 28 27 28 28
29 31 32 32 31 31 31 31 30 28 25 22 20 18 19 20 21 23 26 26 26 27 29 26 17 10 11 17 23 27 31 35 36 35 36 38 38 38 37 36 36 37 35 32 31 35 38 39 40 42 44 45 44 40 39 42 48 48 45 43 40 34 30 28 27 27 29 29 28 26 24 23 23 23 24 25 24 25 26 25 25 25 26 26 28
28 30 31 31 30 30 31 32 32 32 30 27 23 21 20 20 20 21 24 26 26 27 29 30 26 20 12 7 8 8 9 23 32 32 32 31 28 26 26 25 25 26 25 23 25 29 32 30 28 29 31 31 33 34 33 33 35 33 31 31 30 28 26 25 22 21 21 20 19 18 18 18 18 17 19 20 21 22 23 23 25 27 28 29 31
27 29 30 30 29 29 29 31 32 32 33 32 30 27 24 22 21 21 22 24 25 26 27 28 27 26 22 17 16 18 14 11 13 15 17 17 15 15 18 19 17 16 16 16 17 22 24 21 18 18 19 18 22 26 25 24 25 23 22 23 25 25 24 23 20 19 19 17 16 16 16 17 18 19 20 22 23 24 25 26 27 28 29 30 31
25 27 28 29 30 29 28 29 30 31 32 32 33 33 30 27 25 22 21 22 24 25 26 27 27 27 26 23 21 23 25 25 26 27 26 24 22 20 22 24 24 23 23 21 20 21 21 20 20 21 21 19 20 21 21 22 25 25 21 21 23 24 23 21 20 18 19 19 19 20 20 21 21 22 22 23 24 23 23 23 23 24 25 26 27
23 24 26 27 29 29 28 28 29 29 29 30 31 32 33 31 29 26 23 22 22 23 23 25 27 25 24 23 22 24 27 28 29 30 31 31 29 28 27 27 26 26 25 24 24 23 22 22 22 23 23 22 22 22 21 21 22 21 20 19 20 21 21 20 20 20 20 20 20 20 20 20 20 20 20 21 21 21 21 22 23 24 26 29 31
20 22 24 24 26 28 28 27 27 27 27 29 29 30 31 31 31 30 29 27 24 22 21 22 23 22 21 20 20 21 24 27 28 29 30 30 30 30 29 28 28 27 26 25 25 25 26 26 26 25 24 23 22 21 21 20 19 19 19 19 19 18 19 19 18 18 19 19 18 17 17 17 18 18 18 19 21 22 24 26 29 31 33 36 37
17 20 21 21 23 25 26 26 26 25 26 27 27 27 28 29 29 30 31 31 29 26 25 23 21 20 20 19 17 16 19 22 23 24 24 24 24 25 25 25 24 24 23 22 20 19 19 21 22 22 21 20 19 18 18 17 16 16 16 15 15 15 15 14 14 13 14 14 14 15 16 17 18 20 22 24 26 29 31 33 35 36 37 39 40
15 16 18 19 19 21 23 24 25 25 25 25 25 25 26 27 27 28 29 30 30 29 28 26 24 22 21 20 19 18 18 19 20 20 20 19 19 19 18 18 18 18 17 16 15 12 11 11 12 13 12 11 10 11 12 11 10 9 8 7 8 9 9 9 10 11 12 14 15 17 18 20 22 24 26 27 29 31 32 33 34 34 35 36 38
14 14 16 18 17 18 19 21 22 23 25 25 25 25 25 25 25 26 26 27 28 28 28 27 26 25 24 24 23 22 22 21 21 20 20 19 19 18 16 15 14 14 14 14 13 11 9 8 8 7 7 6 6 6 6 6 5 5 4 4 5 6 7 8 10 12 14 16 17 19 21 22 23 24 25 25 25 26 27 27 28 29 30 32 33
13 13 15 16 16 16 17 18 19 20 22 24 25 26 25 24 23 24 24 24 24 25 26 26 26 26 26 26 25 25 24 24 24 24 23 22 21 20 18 17 15 15 14 14 13 11 10 9 8 8 8 8 7 6 6 5 4 2 1 2 3 4 6 7 8 10 11 12 14 14 15 16 16 17 17 18 18 19 21 22 22 23 24 25 26
12 12 13 15 15 15 15 15 16 18 19 20 22 24 24 24 22 22 21 21 21 22 22 23 24 24 25 25 25 25 25 25 25 25 24 24 24 23 22 21 20 20 19 18 17 16 15 14 13 13 12 12 11 10 9 9 8 7 5 4 4 3 3 3 4 5 5 6 7 7 7 8 8 9 10 11 13 14 16 17 18 19 20 21 21
12 12 12 13 14 15 15 14 15 16 16 17 18 20 21 22 21 20 20 20 19 19 18 18 19 20 20 21 22 23 23 24 23 23 23 23 23 23 23 23 23 22 22 22 22 21 20 19 18 18 17 16 15 14 13 12 11 10 9 8 7 6 5 4 3 3 4 4 4 5 5 5 6 7 8 9 9 10 12 13 15 17 17 18 18
13 12 12 12 13 14 16 16 16 16 16 16 16 16 17 19 19 19 18 18 18 18 17 16 15 15 15 15 16 17 17 18 18 19 19 19 19 20 20 20 20 20 20 20 20 20 19 18 17 16 16 15 15 14 14 13 12 11 10 9 8 7 6 5 5 5 5 5 5 5 5 5 5 6 7 8 8 7 7 7 9 10 11 12 13
14 13 14 14 14 14 16 17 18 18 17 16 15 14 14 15 16 17 17 16 16 16 16 16 15 14 13 12 12 12 12 12 13 13 13 13 13 13 14 14 14 14 15 15 15 14 14 13 13 12 12 12 12 12 12 11 11 10 10 9 8 7 6 6 6 7 6 6 6 5 5 5 5 5 6 7 8 8 7 6 5 5 5 5 6
14 14 14 15 16 16 17 18 19 19 19 17 15 13 12 12 13 13 14 15 15 15 15 15 15 15 14 13 12 11 10 10 10 10 10 11 11 11 11 11 11 11 11 11 11 11 11 11 11 11 11 11 11 11 10 10 10 10 9 9 8 7 6 6 7 7 7 7 7 7 6 5 5 5 6 6 6 7 8 8 8 8 8 8 8
Wind_Direction
297 283 274 259 245 240 239 241 243 244 241 235 231 229 227 227 229 233 238 241 243 246 248 247 250 260 262 256 253 253 253 249 244 240 239 243 250 253 248 242 239 239 237 235 235 234 233 232 233 233 232 233 234 235 238 241 241 242 243 243 243 243 244 245 249 256 259 260 260 261 261 256 249 247 245 244 244 244 247 244 238 235 233 233 233
299 286 274 264 255 250 249 248 247 246 243 240 238 234 229 226 226 231 237 241 243 245 247 249 250 258 261 254 250 250 249 247 246 245 246 249 253 255 255 249 245 243 242 240 237 236 236 235 234 234 233 234 234 234 236 238 239 240 239 240 241 242 242 244 247 253 255 257 258 260 260 257 255 252 249 248 248 248 250 248 241 236 234 234 234
301 293 284 273 267 263 262 260 259 257 252 249 245 239 232 229 228 232 237 242 243 242 246 250 250 253 256 251 247 248 246 241 241 246 255 262 261 257 256 255 251 248 246 245 242 240 238 238 237 235 234 235 236 234 235 236 238 239 239 239 241 242 243 244 247 251 254 257 258 259 261 263 264 263 257 254 253 251 252 252 249 244 239 237 236
292 292 288 280 274 273 271 269 268 266 261 257 251 241 236 234 234 236 239 243 243 241 243 249 251 251 250 247 245 247 245 241 241 249 260 267 269 263 258 255 254 252 251 249 248 245 242 240 240 239 236 236 238 237 235 235 237 238 239 240 241 242 243 245 247 250 254 256 258 260 263 266 270 270 263 255 251 251 252 251 250 248 246 244 242
281 285 286 280 277 277 276 275 273 269 265 262 257 250 246 246 246 247 246 246 245 243 242 246 249 249 247 245 246 247 246 244 247 255 259 260 265 266 261 256 254 256 256 254 252 251 249 246 243 241 240 238 238 238 237 236 236 238 240 240 241 242 243 245 247 250 253 255 258 261 263 265 267 267 262 255 251 251 250 249 248 247 247 247 248
283 283 286 284 280 279 282 284 281 278 274 269 264 261 259 256 254 252 251 251 250 248 248 248 249 248 247 246 246 247 248 247 249 253 255 255 258 262 263 258 254 255 259 259 256 253 252 252 248 244 243 241 240 239 238 237 236 237 239 240 241 242 242 244 246 249 252 255 257 260 262 265 266 264 262 257 254 252 252 252 250 247 245 245 246
287 285 286 286 281 278 280 284 284 283 281 276 273 273 272 270 264 256 253 253 253 253 254 254 253 250 248 247 247 248 249 251 252 251 249 249 252 255 259 259 257 257 259 262 263 258 254 254 253 249 245 244 243 242 240 239 239 239 239 240 242 242 241 242 243 246 249 252 254 256 259 263 265 264 262 259 256 254 252 251 251 249 249 248 247
289 289 288 288 285 281 278 277 276 276 276 276 275 275 275 274 271 266 262 258 254 253 253 254 255 254 251 249 249 250 251 253 254 253 249 247 247 249 252 256 258 260 260 262 266 265 259 256 255 253 250 247 247 246 244 242 241 241 241 242 242 242 241 240 241 243 246 248 251 254 257 260 262 261 259 254 251 250 249 249 250 252 254 256 257
293 294 289 285 284 284 282 279 276 272 271 270 270 270 272 273 272 271 269 265 259 256 254 254 253 252 251 249 248 249 251 252 252 252 250 249 247 245 245 248 252 256 258 260 263 266 266 261 257 255 253 251 250 249 248 246 244 244 244 243 243 243 242 241 240 241 243 245 247 249 252 256 257 257 256 255 253 253 252 250 251 252 254 257 260
294 293 289 284 283 285 284 281 279 276 274 271 268 265 266 270 273 273 271 269 267 263 259 256 254 252 250 248 248 249 250 251 250 250 250 250 250 248 246 246 247 250 252 256 258 261 265 265 262 258 256 254 253 252 251 249 248 247 247 246 246 245 243 242 240 240 241 243 245 247 249 253 255 256 258 260 261 259 256 253 253 253 252 252 255
291 290 287 284 284 287 289 285 282 281 279 277 274 269 267 268 272 275 275 273 271 269 265 261 259 257 254 251 250 250 251 252 251 250 249 249 250 251 249 248 249 249 249 252 256 258 260 263 264 262 259 257 255 254 252 251 250 250 249 248 247 247 246 244 242 241 241 242 245 246 248 252 255 258 260 261 261 260 259 258 255 254 252 253 255
291 287 285 283 285 289 292 290 288 286 284 282 279 274 271 269 269 272 276 276 275 274 271 268 264 263 262 259 255 253 252 253 253 251 250 249 250 251 251 249 249 250 250 251 253 258 260 261 264 266 263 259 256 254 253 252 251 250 251 250 248 247 247 247 246 244 243 243 244 247 249 252 255 258 260 262 262 262 262 260 257 256 256 257 260
295 290 287 288 290 293 295 293 290 287 285 284 281 276 271 268 266 266 269 271 273 273 272 271 269 267 267 265 262 259 257 255 254 252 250 249 250 251 250 249 248 249 250 250 251 256 260 261 264 267 263 259 257 255 253 252 251 250 251 251 249 248 247 247 247 246 246 247 248 250 253 254 256 259 263 267 266 263 261 260 260 260 259 261 267
299 294 290 290 291 292 291 289 287 285 283 281 279 277 273 269 266 265 265 266 267 269 269 268 267 266 267 267 266 263 261 259 256 254 251 249 250 252 253 252 250 249 249 248 248 254 258 259 264 267 261 257 257 256 253 251 251 250 249 249 248 246 245 246 246 247 247 248 249 251 253 256 259 263 267 269 268 266 264 264 265 266 268 274 281
310 301 294 290 288 287 286 284 283 282 281 280 279 277 275 273 270 269 268 267 266 266 266 266 265 263 263 264 265 263 260 258 257 256 254 252 251 254 255 253 251 249 248 247 247 251 253 255 260 263 258 255 257 257 254 251 250 250 249 247 246 245 244 244 244 245 246 246 247 249 252 256 260 264 266 267 270 272 271 270 271 271 273 276 274
327 316 305 296 289 287 286 286 284 283 282 283 282 280 278 277 274 273 271 269 267 265 263 263 265 264 261 260 261 261 256 253 254 255 254 253 253 254 252 250 249 248 246 246 249 251 250 251 254 257 256 254 255 257 257 253 249 249 249 247 246 244 244 244 244 245 246 247 248 251 254 259 262 263 265 267 269 273 272 268 265 262 263 263 262
338 328 319 310 301 295 292 290 288 286 286 286 285 285 285 283 281 278 276 272 268 265 262 261 263 264 263 260 259 259 256 251 250 250 250 250 252 253 250 247 247 246 244 245 249 252 251 250 251 252 254 254 253 257 261 256 250 247 247 247 245 244 244 245 245 245 246 247 249 253 256 260 261 261 262 264 265 266 263 260 258 256 257 259 259
341 335 328 322 316 309 304 300 295 291 289 288 287 287 287 286 284 283 281 278 273 267 263 260 259 259 262 261 259 258 256 252 249 249 247 246 248 251 251 248 246 246 246 245 247 250 250 249 249 250 252 254 253 256 261 257 249 245 244 243 243 243 245 246 244 244 244 245 246 249 252 254 255 255 256 258 259 259 256 257 258 258 258 259 261
341 336 331 327 322 317 313 307 302 297 293 289 287 286 285 284 285 285 285 283 279 272 266 262 258 255 256 259 259 257 255 253 250 249 247 245 246 250 252 250 248 248 248 247 246 247 249 248 247 248 251 252 252 253 257 256 250 245 244 242 239 242 246 246 244 242 242 241 241 243 244 245 247 249 251 253 254 254 255 257 258 258 258 259 262
339 335 331 328 324 321 317 312 307 303 298 293 289 288 287 286 287 289 288 285 281 276 269 264 260 256 254 255 257 256 255 253 250 248 246 244 245 248 251 252 250 248 248 247 246 246 247 246 246 247 248 248 247 247 251 253 250 246 245 242 239 244 250 248 244 244 244 243 243 243 243 245 246 248 250 252 252 254 255 255 256 257 258 258 261
338 334 330 328 324 321 318 315 311 306 302 299 296 293 291 290 290 290 289 286 281 276 270 265 262 259 256 255 255 255 255 254 251 249 247 244 244 248 251 252 251 250 248 247 246 246 247 245 244 245 245 245 245 244 245 249 249 247 247 245 244 248 253 249 245 245 247 247 248 247 247 247 248 250 251 252 252 254 255 256 256 258 259 259 260
340 335 330 327 325 322 318 316 313 309 305 302 300 296 295 294 292 290 289 287 282 277 271 266 263 262 260 256 254 253 254 256 255 252 250 248 247 249 251 252 251 251 250 247 245 245 247 246 243 243 244 246 247 245 244 248 249 247 248 248 248 250 251 247 244 245 246 247 249 250 250 250 249 250 252 252 253 254 255 257 258 260 263 264 264
344 340 334 329 326 323 320 317 315 311 307 304 302 299 300 299 296 292 290 288 282 276 271 268 265 264 263 260 255 252 251 253 255 254 252 252 250 250 252 253 252 251 250 248 245 244 246 246 243 244 247 248 247 244 243 246 246 245 247 248 246 245 245 241 240 242 244 247 249 250 252 253 253 253 255 255 255 255 256 259 261 262 264 266 266
345 344 340 335 330 327 324 320 317 313 310 308 305 302 301 302 301 296 291 286 281 276 272 269 267 266 266 264 259 253 249 249 252 254 254 253 252 251 251 253 254 252 250 248 246 246 247 246 244 246 248 246 243 242 243 243 242 243 247 248 243 240 241 241 241 245 247 248 251 253 255 257 257 259 261 261 261 262 262 262 262 263 263 265 266
345 347 345 340 336 332 326 321 318 315 312 309 305 302 302 303 303 299 293 285 279 274 271 270 268 266 266 266 263 257 251 248 249 252 253 254 255 254 252 251 253 254 251 248 247 247 249 248 246 247 247 244 241 242 243 242 239 240 244 247 244 240 241 243 245 248 248 248 251 255 257 259 261 264 266 268 269 268 265 263 263 263 263 263 262
345 348 347 341 339 336 330 325 321 318 315 311 306 304 305 305 302 297 292 285 277 271 269 269 268 266 265 266 265 260 254 250 249 250 252 253 254 256 256 254 254 254 254 252 250 250 252 251 248 246 248 246 243 242 241 238 237 238 241 246 247 242 240 242 244 246 246 247 250 253 256 259 263 265 267 268 267 265 264 264 264 261 260 260 260
347 350 348 342 341 340 335 330 326 319 314 312 309 307 308 308 304 299 293 287 279 273 269 267 266 265 264 264 264 259 254 250 249 250 251 251 252 254 256 258 258 257 255 253 252 251 251 250 247 246 247 246 243 242 241 237 235 235 237 241 245 241 239 243 247 248 248 248 250 253 255 258 261 263 263 262 260 261 265 266 262 258 258 262 262
349 351 349 345 344 343 339 335 331 323 317 315 312 310 312 313 311 305 297 289 281 275 270 266 264 262 260 260 260 258 254 251 248 248 250 252 252 253 255 256 258 258 255 251 248 248 248 246 244 242 242 242 241 240 237 233 235 237 238 241 244 242 241 244 246 244 245 247 249 250 251 254 257 258 258 257 256 259 264 264 260 259 262 265 264
351 351 350 348 347 346 342 338 335 328 323 318 313 312 315 318 317 311 302 291 281 276 271 267 263 261 258 257 257 256 255 253 251 251 251 252 254 255 255 254 255 257 257 253 248 245 243 241 239 238 237 237 238 238 234 230 230 234 237 241 244 242 240 240 238 236 238 242 244 245 246 250 252 252 253 254 255 259 264 262 257 256 258 258 260
353 352 351 351 349 347 343 341 339 334 328 323 319 317 317 320 327 326 313 296 283 275 270 267 265 262 259 257 255 255 255 256 255 254 252 252 254 256 257 256 257 259 260 255 246 242 240 238 236 235 235 236 236 237 235 231 228 229 232 237 241 240 236 233 233 233 235 237 239 240 243 246 248 249 250 253 257 261 264 261 258 257 257 256 258
355 354 353 352 350 347 345 343 343 339 334 330 328 327 324 324 334 343 335 311 289 277 272 269 268 265 261 258 255 254 254 255 255 253 251 250 251 252 253 255 258 261 261 254 243 236 235 235 234 234 236 238 238 238 237 234 231 229 229 232 235 235 232 230 231 231 230 230 232 234 237 240 244 247 251 254 258 262 263 260 259 261 260 260 262
357 355 354 352 350 349 347 346 347 345 340 335 331 334 336 334 337 347 352 339 308 281 271 270 270 268 266 262 258 254 252 251 251 250 248 246 245 244 247 252 256 258 259 254 244 236 234 235 236 237 239 240 242 242 240 238 237 235 234 234 235 233 231 231 230 229 226 224 224 226 229 233 237 243 248 252 255 257 257 256 256 258 259 261 264
359 357 355 353 352 352 351 350 351 351 348 342 336 337 346 347 342 344 349 346 332 306 279 267 267 269 270 267 262 257 254 252 249 247 246 244 242 242 248 255 257 255 254 251 247 243 240 239 240 241 242 244 247 247 244 241 240 239 239 240 239 237 235 233 229 226 225 223 221 221 223 226 232 239 243 247 251 253 253 254 255 256 258 260 263
359 358 356 355 355 355 355 353 353 354 354 351 344 341 349 354 350 346 347 344 339 330 308 281 270 270 270 266 262 259 257 252 248 247 247 244 241 242 248 254 254 253 252 249 248 248 246 243 242 242 244 246 249 250 247 244 241 240 241 243 244 244 241 236 229 227 226 223 221 220 218 219 226 233 237 242 249 254 255 256 256 255 255 257 259
1 0 0 0 360 0 0 358 356 357 357 356 352 346 349 355 356 357 358 354 349 346 335 309 284 272 270 266 261 257 256 251 246 244 244 242 239 241 245 246 246 250 252 248 245 247 247 245 243 244 245 247 248 247 246 244 240 238 238 239 240 241 238 231 226 223 221 217 217 218 216 216 221 227 233 239 245 250 253 255 254 253 253 254 257
3 3 3 4 5 6 6 4 2 2 0 360 359 353 351 355 1 5 8 7 6 11 11 356 317 280 271 269 265 261 256 251 243 236 235 236 236 237 240 242 244 249 252 249 246 247 248 246 244 244 244 243 242 241 241 242 240 237 235 235 233 230 227 225 221 218 218 219 220 220 221 226 230 233 239 242 239 239 245 250 252 253 256 258 261
7 5 4 6 9 11 12 11 9 8 5 3 2 358 354 357 3 8 10 10 12 21 28 26 14 338 287 277 279 275 264 252 243 235 231 232 234 237 242 246 250 251 249 246 243 242 241 241 240 240 240 239 238 238 239 240 239 236 233 232 229 224 223 224 223 222 226 230 231 229 233 240 242 242 245 246 241 240 245 250 253 256 260 262 264
8 6 4 6 10 13 15 15 14 15 14 11 8 5 2 2 5 8 11 14 16 22 29 31 30 27 24 18 16 3 279 246 239 234 228 227 230 237 243 247 248 246 241 238 236 234 232 232 233 234 234 233 232 233 233 232 231 226 221 219 217 213 213 218 224 231 236 240 240 239 240 243 244 243 245 247 247 247 249 252 256 260 262 263 264
7 6 5 6 10 14 17 17 16 18 19 20 18 14 10 9 11 12 14 17 20 23 29 33 35 36 39 50 72 84 98 138 164 167 173 181 190 204 209 204 199 198 198 200 206 212 215 214 212 213 215 214 217 221 219 212 208 204 200 201 203 203 206 211 218 227 233 236 239 241 239 239 239 240 241 244 249 251 253 255 258 260 262 264 265
6 5 4 5 9 13 16 18 19 20 23 25 25 23 20 18 19 21 22 24 27 28 31 36 40 43 43 47 64 85 95 102 108 115 125 137 146 156 162 161 157 156 159 166 174 182 187 188 188 192 197 197 199 203 199 194 193 192 188 189 194 197 202 208 213 219 226 231 233 234 236 237 238 239 240 243 246 249 251 252 254 256 260 265 269
5 5 3 4 6 9 14 19 21 22 25 28 29 28 27 26 26 28 29 31 32 31 33 37 41 46 48 47 53 68 79 86 94 102 108 115 121 128 134 139 143 147 152 159 166 170 173 175 175 177 179 180 180 181 180 180 183 184 183 187 193 194 197 202 207 212 217 220 221 222 225 228 229 231 233 237 240 245 249 254 259 264 269 272 276
0 3 3 3 4 6 10 16 19 21 25 28 30 31 32 31 30 31 32 33 34 33 34 37 38 41 47 49 49 55 62 68 77 85 90 95 100 105 111 117 124 130 133 137 143 146 150 155 158 159 159 159 160 162 163 162 163 167 174 182 188 190 190 192 195 199 202 206 210 215 220 224 230 236 243 249 256 262 268 271 274 276 278 279 281
355 360 1 1 2 4 6 11 16 19 22 25 27 30 33 34 34 33 33 34 35 34 36 38 37 36 40 46 50 53 55 58 63 70 75 78 82 86 91 97 104 111 114 117 119 121 126 134 140 143 144 143 145 149 152 151 150 154 160 166 174 182 187 191 197 204 212 219 227 236 244 251 258 263 268 271 274 275 277 278 278 279 279 280 280
348 354 357 356 359 1 2 5 12 17 20 22 24 27 30 33 35 36 35 35 35 35 35 37 39 41 43 44 46 50 55 58 61 65 69 71 72 74 74 76 82 89 96 99 100 100 99 102 108 117 123 124 126 135 145 149 153 160 165 173 187 201 212 221 230 241 251 256 260 265 269 272 275 277 279 280 280 280 280 279 279 278 278 277 277
341 346 351 352 353 356 358 1 6 10 13 17 20 23 25 29 32 35 36 37 37 38 38 38 39 42 46 48 50 51 54 57 62 66 69 71 73 74 75 74 75 77 82 84 87 91 94 91 86 92 102 102 96 100 114 132 155 184 217 243 249 255 264 269 271 275 279 280 281 283 283 283 284 284 284 284 284 283 281 279 278 277 277 277 276
336 338 343 346 347 348 351 354 358 1 5 10 13 15 19 22 26 30 34 36 38 40 42 44 44 44 46 50 55 58 60 61 63 65 68 71 73 75 77 79 80 80 81 81 80 82 87 88 84 83 87 86 78 73 72 76 86 120 232 293 304 301 301 302 299 297 296 295 295 295 294 294 294 293 292 291 289 285 282 281 279 279 279 279 279
330 333 333 337 341 343 343 345 349 352 356 2 5 7 9 13 17 22 27 31 35 38 41 44 47 48 50 52 56 60 63 64 65 68 71 74 77 79 80 81 82 82 82 82 82 81 80 81 80 80 81 80 77 75 73 71 73 77 75 64 53 39 19 355 336 325 321 320 318 318 321 323 323 320 316 311 303 296 290 287 284 282 281 280 280
318 323 324 328 333 335 333 335 340 345 349 354 358 0 2 4 7 12 18 22 27 31 35 39 43 46 50 53 55 58 61 63 64 67 70 74 78 81 82 83 83 84 85 85 85 85 85 85 85 85 86 86 85 84 84 85 87 90 91 91 90 85 77 66 46 24 7 357 352 349 347 347 347 344 341 334 324 313 304 295 290 286 283 281 282
310 310 312 316 320 321 321 322 326 332 339 344 347 352 357 360 1 5 10 15 19 22 25 29 34 38 44 49 53 56 60 62 64 67 69 71 73 75 77 79 81 83 84 85 85 85 85 85 84 84 84 84 85 87 89 91 94 96 96 95 91 82 73 62 43 24 9 0 357 357 354 355 359 4 8 8 3 353 336 316 302 294 290 289 290
310 304 303 304 305 308 312 315 317 321 327 333 337 342 349 355 359 2 5 9 14 18 20 21 23 26 30 37 44 50 55 60 64 67 69 69 69 67 67 69 71 72 74 77 79 80 80 80 79 80 80 82 85 88 89 91 92 90 85 78 70 59 45 29 18 12 6 2 359 357 359 2 5 9 17 25 30 30 28 24 18 10 1 351 343
314 309 304 301 299 300 303 308 312 315 318 323 331 338 343 346 351 357 0 3 7 13 17 18 19 18 18 21 25 30 39 49 55 60 64 65 66 65 64 63 63 64 65 67 70 74 76 76 77 78 79 81 84 85 84 82 79 76 69 61 52 41 30 21 18 17 18 17 12 5 1 0 2 4 8 14 20 24 26 28 31 33 32 26 18
Height
1497 1499 1499 1499 1500 1500 1501 1502 1503 1504 1506 1506 1506 1507 1510 1512 1515 1517 1519 1521 1523 1523 1523 1523 1523 1522 1522 1523 1526 1529 1531 1532 1534 1534 1533 1534 1538 1542 1543 1542 1541 1541 1541 1540 1541 1541 1541 1542 1542 1542 1544 1545 1545 1547 1548 1550 1551 1552 1552 1552 1552 1552 1552 1551 1550 1549 1550 1550 1550 1551 1551 1551 1551 1551 1552 1553 1553 1554 1554 1554 1555 1555 1556 1557 1558
1496 1497 1498 1498 1499 1499 1500 1501 1501 1502 1503 1505 1505 1506 1507 1509 1511 1513 1514 1516 1518 1519 1520 1519 1518 1518 1519 1521 1523 1526 1527 1529 1530 1532 1532 1531 1533 1538 1541 1542 1541 1540 1539 1538 1537 1538 1538 1539 1539 1540 1541 1541 1542 1543 1545 1547 1548 1549 1550 1550 1550 1550 1550 1549 1548 1547 1548 1548 1549 1549 1549 1549 1549 1550 1550 1551 1552 1553 1553 1553 1553 1554 1554 1555 1556
1495 1495 1495 1496 1497 1497 1498 1499 1499 1500 1500 1502 1503 1503 1504 1506 1507 1508 1509 1511 1513 1515 1516 1515 1514 1515 1516 1519 1521 1523 1524 1525 1526 1526 1527 1528 1530 1532 1536 1539 1540 1539 1538 1536 1536 1536 1536 1535 1536 1537 1538 1538 1538 1540 1542 1543 1545 1546 1547 1548 1547 1548 1548 1548 1548 1547 1546 1547 1547 1547 1548 1548 1548 1549 1549 1550 1551 1552 1552 1552 1552 1552 1553 1554 1554
1494 1494 1493 1493 1494 1495 1495 1496 1496 1497 1497 1498 1499 1500 1502 1503 1504 1505 1505 1506 1508 1509 1511 1512 1512 1512 1513 1515 1518 1520 1522 1523 1522 1521 1521 1523 1526 1528 1530 1532 1535 1537 1537 1536 1535 1535 1534 1533 1533 1534 1535 1535 1535 1536 1538 1539 1541 1542 1543 1545 1545 1546 1547 1547 1547 1546 1546 1545 1545 1546 1546 1547 1547 1548 1548 1549 1549 1550 1551 1551 1551 1551 1552 1552 1553
1492 1492 1492 1492 1492 1492 1493 1494 1494 1494 1495 1496 1497 1498 1499 1500 1502 1502 1502 1503 1504 1505 1506 1507 1508 1508 1510 1512 1514 1516 1519 1520 1520 1517 1517 1519 1522 1524 1525 1526 1528 1532 1534 1535 1535 1534 1533 1531 1530 1531 1532 1532 1531 1532 1534 1535 1537 1538 1539 1541 1542 1543 1545 1545 1546 1545 1544 1544 1544 1544 1544 1545 1545 1546 1546 1547 1547 1548 1549 1549 1549 1550 1550 1551 1551
1490 1490 1490 1491 1490 1491 1491 1492 1493 1493 1493 1494 1495 1496 1496 1497 1498 1499 1499 1500 1500 1501 1502 1503 1504 1505 1507 1509 1510 1512 1514 1516 1516 1515 1514 1516 1518 1520 1521 1522 1523 1525 1527 1530 1532 1533 1532 1530 1529 1530 1530 1529 1528 1528 1530 1532 1533 1534 1535 1537 1539 1541 1542 1543 1544 1543 1543 1542 1542 1542 1541 1541 1542 1542 1543 1544 1544 1545 1546 1547 1547 1547 1548 1549 1549
1488 1488 1488 1489 1489 1490 1490 1490 1491 1491 1492 1492 1492 1493 1493 1494 1494 1495 1496 1496 1497 1498 1498 1499 1500 1501 1503 1504 1505 1507 1509 1511 1512 1512 1512 1512 1514 1515 1517 1518 1520 1521 1521 1523 1526 1529 1530 1529 1529 1528 1528 1526 1525 1525 1527 1529 1530 1531 1532 1534 1536 1538 1539 1540 1541 1541 1540 1540 1540 1539 1538 1538 1538 1539 1540 1542 1542 1542 1543 1544 1544 1544 1545 1546 1546
1487 1487 1487 1487 1488 1489 1489 1489 1489 1489 1489 1489 1489 1489 1489 1490 1490 1491 1492 1492 1493 1494 1494 1495 1496 1497 1498 1499 1500 1502 1504 1505 1507 1508 1508 1509 1509 1510 1512 1513 1515 1516 1517 1518 1519 1522 1524 1526 1527 1526 1526 1524 1523 1523 1524 1526 1527 1528 1529 1531 1533 1534 1536 1537 1538 1538 1538 1538 1537 1537 1536 1536 1535 1536 1537 1538 1538 1537 1538 1539 1540 1541 1543 1543 1544
1486 1486 1486 1486 1486 1486 1487 1487 1487 1486 1486 1486 1486 1485 1485 1485 1486 1486 1487 1488 1489 1489 1490 1491 1492 1493 1494 1495 1496 1497 1498 1499 1500 1502 1503 1504 1504 1505 1506 1507 1509 1510 1512 1513 1514 1515 1518 1521 1523 1524 1523 1522 1521 1521 1522 1524 1524 1525 1526 1528 1529 1530 1532 1533 1534 1534 1534 1534 1534 1534 1533 1532 1531 1532 1532 1532 1533 1534 1536 1538 1538 1539 1541 1541 1541
1484 1484 1484 1484 1484 1484 1484 1484 1484 1484 1483 1483 1482 1482 1481 1481 1481 1482 1483 1484 1484 1485 1486 1487 1487 1488 1489 1490 1491 1491 1491 1492 1494 1496 1497 1498 1499 1500 1501 1502 1503 1505 1506 1508 1509 1510 1512 1515 1518 1520 1520 1520 1520 1519 1520 1521 1522 1522 1523 1524 1525 1526 1527 1528 1529 1529 1530 1530 1530 1531 1530 1528 1527 1528 1528 1529 1531 1533 1535 1536 1536 1538 1539 1538 1538
1481 1482 1482 1482 1482 1481 1481 1481 1481 1480 1480 1480 1479 1478 1478 1478 1478 1479 1479 1480 1481 1481 1482 1482 1482 1483 1484 1484 1485 1486 1486 1487 1488 1490 1491 1492 1493 1494 1495 1497 1498 1500 1501 1502 1503 1505 1506 1509 1512 1515 1517 1517 1517 1516 1517 1518 1519 1519 1520 1520 1521 1522 1523 1523 1524 1524 1525 1525 1526 1527 1526 1524 1525 1526 1526 1527 1529 1530 1532 1534 1535 1536 1536 1535 1535
1478 1479 1479 1479 1479 1479 1478 1478 1477 1477 1476 1476 1475 1474 1474 1474 1474 1475 1476 1477 1477 1477 1477 1477 1477 1477 1478 1478 1479 1479 1480 1481 1482 1484 1485 1486 1488 1488 1489 1491 1492 1494 1495 1497 1498 1499 1500 1502 1505 1508 1511 1513 1513 1513 1514 1515 1516 1517 1517 1516 1516 1517 1518 1519 1519 1520 1520 1521 1522 1522 1521 1521 1522 1523 1524 1525 1526 1528 1529 1531 1532 1533 1534 1533 1532
1476 1475 1475 1475 1475 1475 1474 1474 1473 1473 1472 1471 1471 1471 1470 1470 1470 1470 1471 1472 1473 1473 1472 1472 1472 1472 1472 1472 1473 1473 1474 1475 1476 1478 1479 1481 1482 1483 1484 1485 1486 1488 1489 1491 1492 1494 1494 1495 1497 1500 1503 1506 1509 1510 1510 1511 1512 1513 1513 1513 1512 1512 1513 1514 1515 1515 1516 1517 1517 1516 1516 1517 1519 1520 1521 1523 1524 1525 1526 1527 1528 1530 1530 1530 1530
1473 1472 1472 1471 1471 1471 1470 1469 1469 1468 1468 1467 1467 1467 1467 1466 1466 1466 1466 1467 1467 1467 1467 1467 1467 1467 1467 1466 1466 1466 1467 1468 1470 1472 1473 1475 1477 1478 1479 1480 1481 1482 1483 1485 1486 1488 1489 1490 1492 1493 1494 1498 1502 1505 1506 1506 1508 1509 1509 1508 1507 1507 1508 1509 1510 1510 1511 1512 1511 1510 1511 1513 1515 1517 1519 1521 1521 1521 1523 1524 1525 1526 1526 1527 1528
1471 1470 1469 1468 1468 1467 1466 1465 1464 1464 1464 1464 1463 1463 1463 1462 1462 1462 1462 1462 1462 1462 1462 1462 1462 1462 1462 1461 1460 1460 1460 1462 1464 1466 1468 1470 1472 1473 1473 1473 1474 1475 1477 1478 1480 1481 1483 1485 1487 1488 1489 1491 1495 1499 1501 1502 1503 1503 1502 1501 1501 1502 1503 1502 1503 1504 1505 1506 1505 1505 1507 1510 1513 1515 1517 1517 1517 1518 1520 1522 1522 1523 1524 1524 1525
1468 1467 1466 1465 1464 1463 1463 1462 1461 1460 1460 1459 1459 1459 1458 1458 1458 1458 1458 1457 1457 1456 1456 1456 1456 1456 1456 1456 1455 1454 1454 1456 1458 1460 1462 1465 1466 1467 1467 1467 1468 1469 1470 1473 1474 1476 1477 1479 1481 1483 1485 1486 1489 1493 1495 1497 1497 1497 1496 1496 1497 1498 1497 1497 1498 1500 1501 1501 1502 1503 1504 1507 1509 1511 1512 1513 1514 1515 1517 1518 1518 1519 1520 1520 1520
1466 1464 1463 1462 1461 1460 1459 1458 1457 1456 1455 1454 1454 1454 1454 1453 1454 1454 1453 1451 1451 1450 1450 1450 1449 1449 1449 1450 1449 1448 1448 1450 1452 1454 1456 1458 1460 1461 1461 1462 1463 1463 1464 1467 1468 1469 1471 1473 1475 1477 1478 1480 1483 1487 1488 1488 1490 1490 1489 1490 1493 1494 1493 1492 1494 1495 1496 1497 1499 1500 1502 1503 1505 1506 1508 1508 1510 1512 1513 1512 1511 1513 1515 1514 1514
1464 1462 1460 1458 1457 1456 1455 1454 1453 1451 1451 1450 1449 1449 1448 1448 1448 1448 1447 1446 1445 1444 1444 1443 1443 1443 1442 1443 1443 1442 1442 1444 1446 1448 1449 1451 1453 1454 1455 1456 1456 1457 1458 1460 1461 1462 1463 1465 1467 1469 1471 1473 1477 1480 1480 1479 1480 1482 1483 1484 1487 1487 1487 1487 1488 1490 1491 1493 1495 1496 1497 1497 1498 1500 1501 1503 1504 1506 1506 1506 1507 1509 1509 1509 1509
1461 1459 1457 1455 1454 1452 1451 1450 1449 1447 1446 1446 1445 1444 1443 1443 1443 1443 1442 1441 1439 1438 1437 1436 1435 1435 1435 1435 1436 1436 1436 1436 1439 1441 1443 1444 1446 1447 1448 1449 1449 1450 1452 1453 1454 1455 1456 1458 1461 1462 1465 1468 1471 1473 1473 1471 1472 1477 1479 1479 1480 1480 1480 1482 1483 1484 1485 1487 1489 1489 1490 1491 1492 1493 1495 1497 1498 1499 1500 1501 1503 1504 1504 1504 1506
1459 1457 1455 1453 1451 1449 1447 1446 1445 1443 1442 1441 1440 1440 1439 1438 1437 1437 1436 1435 1433 1432 1431 1430 1428 1427 1428 1428 1428 1429 1429 1429 1431 1433 1435 1437 1439 1440 1440 1441 1442 1444 1446 1447 1447 1448 1450 1452 1454 1457 1459 1461 1463 1465 1465 1464 1466 1472 1475 1474 1473 1473 1474 1476 1479 1480 1481 1482 1484 1485 1485 1486 1488 1489 1490 1492 1493 1494 1495 1496 1498 1498 1499 1501 1502
1457 1454 1452 1450 1448 1446 1444 1442 1441 1439 1438 1437 1435 1434 1434 1433 1432 1430 1429 1427 1426 1424 1424 1423 1422 1420 1420 1421 1420 1421 1422 1422 1423 1425 1427 1429 1431 1433 1432 1432 1435 1438 1439 1440 1440 1441 1442 1445 1447 1450 1452 1454 1456 1457 1459 1459 1460 1464 1469 1470 1469 1469 1470 1472 1475 1477 1478 1479 1481 1482 1483 1484 1484 1485 1486 1487 1488 1489 1490 1492 1493 1494 1496 1497 1498
1455 1452 1450 1447 1445 1443 1441 1439 1437 1435 1433 1432 1430 1429 1428 1428 1426 1424 1422 1420 1418 1417 1416 1416 1415 1414 1413 1413 1413 1413 1414 1416 1417 1418 1420 1422 1423 1424 1424 1425 1428 1431 1432 1432 1433 1434 1435 1438 1440 1443 1446 1447 1449 1451 1452 1454 1453 1454 1460 1465 1466 1466 1466 1468 1470 1472 1475 1476 1477 1478 1479 1480 1480 1481 1482 1484 1485 1486 1487 1488 1490 1491 1492 1492 1494
1453 1450 1447 1445 1442 1440 1437 1435 1433 1431 1429 1428 1426 1424 1423 1422 1420 1418 1416 1414 1412 1410 1410 1410 1409 1407 1406 1405 1405 1406 1407 1409 1410 1411 1412 1414 1416 1416 1417 1418 1421 1424 1424 1425 1426 1427 1429 1432 1435 1438 1440 1441 1443 1444 1445 1447 1448 1448 1451 1456 1458 1459 1459 1461 1464 1468 1470 1472 1472 1472 1473 1474 1476 1477 1479 1480 1481 1483 1484 1486 1487 1488 1488 1488 1489
1451 1448 1444 1441 1438 1435 1433 1430 1428 1426 1424 1423 1421 1419 1417 1416 1414 1412 1410 1408 1407 1405 1404 1404 1403 1401 1399 1398 1398 1399 1400 1402 1403 1404 1405 1407 1408 1409 1410 1412 1415 1416 1417 1418 1419 1421 1423 1426 1429 1432 1434 1435 1437 1438 1438 1440 1442 1444 1446 1449 1451 1453 1454 1458 1463 1466 1467 1467 1467 1466 1467 1469 1470 1472 1475 1477 1479 1480 1482 1482 1483 1483 1484 1484 1485
1449 1445 1442 1439 1435 1432 1428 1425 1423 1420 1419 1417 1415 1413 1411 1409 1407 1405 1404 1402 1401 1399 1398 1398 1396 1395 1393 1392 1390 1391 1393 1395 1396 1397 1399 1400 1400 1401 1403 1405 1408 1410 1410 1411 1413 1415 1417 1420 1424 1426 1428 1430 1432 1432 1432 1433 1435 1438 1440 1444 1447 1449 1450 1455 1461 1463 1461 1462 1462 1461 1462 1464 1465 1468 1470 1473 1475 1477 1477 1477 1478 1479 1479 1480 1480
1446 1443 1439 1437 1433 1429 1424 1420 1417 1416 1414 1413 1410 1408 1406 1403 1401 1398 1397 1396 1394 1393 1392 1392 1391 1389 1387 1386 1384 1385 1387 1388 1389 1391 1393 1394 1394 1394 1396 1398 1401 1403 1404 1405 1407 1409 1412 1415 1419 1422 1422 1423 1425 1426 1426 1427 1429 1431 1433 1437 1440 1443 1446 1450 1454 1455 1455 1455 1456 1456 1457 1459 1461 1464 1466 1468 1470 1471 1472 1473 1473 1474 1474 1474 1475
1443 1439 1436 1433 1430 1425 1421 1417 1413 1411 1409 1408 1405 1403 1401 1399 1395 1392 1389 1388 1387 1386 1386 1385 1385 1383 1382 1381 1380 1380 1381 1382 1383 1384 1386 1388 1388 1389 1390 1392 1394 1396 1397 1398 1400 1403 1407 1411 1414 1416 1416 1417 1418 1419 1419 1420 1422 1424 1426 1428 1431 1435 1439 1444 1447 1448 1448 1449 1450 1450 1452 1454 1456 1458 1461 1463 1464 1465 1467 1468 1468 1468 1469 1470 1470
1442 1438 1434 1431 1427 1422 1418 1414 1411 1408 1406 1404 1401 1399 1396 1394 1389 1385 1383 1382 1380 1379 1379 1379 1378 1378 1378 1377 1376 1376 1375 1375 1376 1378 1381 1382 1383 1383 1384 1385 1387 1388 1389 1391 1394 1398 1402 1405 1408 1410 1409 1409 1410 1411 1411 1413 1415 1417 1419 1420 1422 1426 1432 1437 1440 1440 1441 1443 1444 1445 1447 1448 1450 1452 1455 1456 1458 1460 1462 1463 1463 1464 1465 1466 1466
1442 1438 1433 1429 1425 1421 1417 1413 1410 1407 1404 1401 1399 1396 1393 1389 1384 1379 1376 1375 1374 1373 1373 1372 1372 1373 1373 1372 1371 1370 1369 1368 1370 1373 1376 1377 1377 1378 1378 1378 1380 1381 1383 1386 1390 1394 1396 1399 1400 1401 1401 1401 1401 1402 1403 1404 1406 1409 1410 1411 1413 1417 1423 1428 1431 1432 1434 1436 1437 1438 1440 1442 1444 1447 1449 1450 1452 1455 1457 1457 1458 1459 1460 1460 1460
1440 1437 1433 1429 1425 1421 1416 1413 1409 1406 1403 1400 1396 1392 1389 1386 1381 1375 1370 1368 1368 1368 1367 1366 1366 1368 1367 1366 1366 1365 1364 1364 1366 1369 1370 1371 1372 1372 1373 1374 1375 1377 1379 1383 1386 1388 1389 1391 1392 1393 1394 1393 1393 1394 1395 1397 1399 1401 1403 1404 1405 1407 1412 1417 1421 1423 1426 1428 1429 1431 1433 1435 1437 1440 1442 1443 1446 1449 1450 1451 1452 1453 1454 1454 1454
1439 1435 1432 1428 1425 1420 1416 1412 1408 1405 1402 1399 1395 1389 1384 1380 1376 1372 1367 1363 1362 1362 1362 1362 1361 1362 1361 1360 1359 1359 1359 1359 1362 1363 1364 1365 1366 1367 1368 1369 1370 1373 1375 1378 1379 1381 1383 1383 1385 1386 1387 1387 1387 1388 1389 1391 1392 1394 1396 1397 1397 1399 1402 1406 1411 1414 1417 1419 1421 1423 1426 1428 1430 1433 1435 1438 1440 1443 1444 1446 1446 1447 1448 1448 1448
1439 1435 1431 1427 1424 1420 1415 1411 1407 1403 1400 1397 1393 1388 1382 1376 1370 1367 1364 1362 1359 1358 1357 1357 1356 1356 1355 1353 1352 1352 1352 1353 1355 1357 1358 1359 1360 1361 1363 1365 1366 1368 1371 1372 1373 1375 1377 1377 1377 1379 1380 1381 1381 1383 1385 1386 1387 1389 1390 1392 1393 1394 1396 1398 1402 1406 1409 1410 1412 1415 1418 1421 1424 1427 1430 1433 1435 1438 1439 1440 1441 1442 1442 1442 1443
1438 1434 1430 1426 1422 1418 1414 1409 1405 1401 1398 1395 1391 1387 1382 1376 1370 1365 1361 1360 1358 1355 1353 1351 1350 1349 1348 1347 1345 1344 1344 1345 1347 1349 1350 1351 1353 1355 1358 1360 1361 1363 1365 1366 1366 1368 1370 1370 1370 1372 1374 1375 1377 1379 1381 1382 1383 1385 1387 1389 1391 1392 1393 1395 1397 1400 1402 1404 1406 1408 1411 1415 1419 1422 1425 1428 1431 1433 1435 1436 1436 1437 1437 1437 1437
1438 1434 1430 1426 1421 1417 1413 1408 1404 1400 1397 1394 1390 1385 1381 1376 1372 1367 1362 1357 1353 1350 1347 1344 1342 1341 1340 1339 1338 1337 1337 1338 1339 1341 1342 1344 1347 1350 1353 1355 1356 1357 1358 1359 1360 1361 1362 1364 1366 1368 1370 1371 1373 1375 1376 1377 1379 1382 1384 1387 1389 1391 1392 1393 1395 1396 1398 1400 1403 1405 1407 1410 1414 1417 1421 1424 1426 1428 1430 1432 1432 1432 1432 1432 1433
1437 1433 1430 1425 1421 1417 1413 1408 1404 1400 1396 1393 1389 1385 1381 1377 1373 1370 1365 1359 1352 1347 1343 1339 1337 1335 1333 1332 1332 1332 1331 1330 1331 1333 1335 1338 1342 1346 1348 1348 1348 1348 1350 1352 1354 1355 1357 1359 1361 1363 1366 1367 1368 1370 1371 1373 1375 1378 1381 1383 1385 1386 1386 1388 1390 1392 1394 1396 1398 1401 1403 1406 1409 1413 1416 1418 1421 1423 1426 1428 1429 1428 1428 1428 1429
1435 1432 1429 1425 1421 1417 1413 1409 1405 1401 1397 1393 1389 1385 1382 1378 1374 1370 1366 1360 1354 1348 1343 1338 1334 1331 1330 1329 1328 1327 1326 1325 1326 1327 1330 1334 1338 1340 1340 1340 1341 1342 1343 1346 1349 1351 1353 1355 1357 1360 1362 1363 1364 1366 1369 1371 1372 1373 1375 1377 1379 1380 1383 1386 1387 1389 1391 1394 1396 1399 1402 1405 1408 1411 1413 1414 1415 1418 1421 1423 1424 1424 1424 1425 1425
1435 1431 1428 1425 1421 1418 1414 1410 1406 1402 1398 1394 1389 1385 1381 1378 1374 1370 1365 1360 1354 1349 1343 1337 1333 1330 1328 1327 1325 1321 1320 1321 1322 1324 1326 1329 1333 1334 1334 1335 1336 1337 1339 1342 1345 1348 1351 1352 1355 1357 1358 1358 1360 1364 1367 1368 1368 1368 1370 1372 1375 1377 1382 1385 1387 1389 1392 1394 1396 1398 1400 1403 1405 1407 1408 1410 1411 1414 1416 1418 1419 1419 1420 1421 1421
1435 1432 1429 1426 1422 1418 1415 1411 1407 1403 1399 1394 1389 1384 1380 1377 1374 1370 1365 1360 1355 1350 1344 1339 1336 1333 1331 1328 1325 1320 1318 1317 1319 1321 1323 1326 1328 1329 1330 1330 1332 1334 1336 1339 1342 1345 1349 1351 1353 1354 1355 1356 1358 1361 1364 1365 1366 1366 1367 1370 1372 1375 1378 1381 1384 1388 1391 1392 1393 1394 1397 1399 1401 1403 1404 1406 1408 1410 1412 1413 1414 1414 1415 1416 1416
1435 1432 1429 1426 1423 1419 1415 1411 1407 1403 1399 1394 1389 1385 1381 1377 1373 1370 1366 1362 1357 1352 1348 1344 1342 1340 1337 1333 1328 1324 1321 1319 1319 1320 1322 1323 1325 1326 1326 1326 1328 1330 1333 1336 1339 1343 1347 1350 1351 1353 1354 1355 1357 1359 1361 1363 1365 1366 1367 1368 1370 1372 1374 1377 1380 1383 1385 1387 1388 1390 1393 1395 1397 1399 1400 1402 1404 1405 1407 1408 1408 1409 1409 1409 1410
1435 1432 1429 1427 1424 1420 1416 1413 1409 1404 1400 1395 1391 1387 1383 1379 1375 1372 1368 1365 1361 1357 1353 1349 1347 1345 1342 1339 1334 1329 1326 1324 1323 1322 1322 1322 1324 1326 1325 1325 1325 1327 1330 1333 1337 1341 1344 1346 1348 1350 1351 1353 1354 1356 1359 1362 1362 1362 1364 1366 1367 1369 1371 1374 1376 1379 1381 1383 1385 1387 1390 1392 1394 1395 1397 1398 1399 1400 1401 1402 1403 1403 1403 1404 1404
1435 1433 1430 1427 1424 1421 1418 1414 1410 1406 1402 1398 1394 1390 1387 1383 1379 1375 1372 1368 1364 1361 1358 1355 1352 1350 1348 1346 1342 1337 1334 1332 1329 1327 1324 1324 1324 1325 1325 1325 1325 1327 1330 1333 1337 1339 1342 1344 1346 1348 1349 1351 1352 1354 1357 1359 1359 1359 1361 1364 1366 1367 1369 1371 1373 1376 1379 1381 1383 1385 1387 1389 1391 1392 1393 1395 1396 1396 1397 1398 1398 1398 1399 1398 1398
1436 1433 1430 1428 1425 1422 1419 1415 1412 1409 1405 1401 1397 1393 1390 1386 1383 1379 1375 1371 1368 1365 1363 1360 1357 1355 1352 1350 1347 1345 1342 1339 1336 1332 1330 1329 1328 1327 1327 1327 1328 1330 1333 1335 1338 1340 1342 1344 1346 1348 1349 1350 1351 1352 1354 1355 1356 1357 1358 1361 1364 1366 1368 1370 1372 1374 1376 1378 1380 1382 1384 1385 1387 1388 1390 1391 1392 1393 1393 1393 1393 1394 1394 1393 1393
1436 1433 1431 1429 1426 1423 1420 1417 1414 1411 1407 1403 1400 1397 1393 1390 1386 1382 1379 1376 1372 1369 1366 1363 1361 1359 1356 1353 1351 1349 1346 1344 1340 1338 1337 1336 1335 1334 1334 1334 1334 1335 1337 1339 1341 1343 1344 1344 1346 1348 1349 1350 1351 1352 1352 1353 1355 1357 1358 1361 1364 1366 1368 1369 1371 1372 1374 1375 1377 1379 1380 1382 1384 1385 1386 1387 1388 1388 1389 1389 1389 1389 1388 1388 1387
1435 1433 1432 1429 1427 1424 1422 1419 1416 1412 1409 1406 1403 1400 1396 1393 1389 1386 1383 1379 1376 1373 1370 1367 1365 1362 1360 1357 1355 1353 1351 1348 1346 1345 1344 1343 1342 1341 1341 1341 1341 1340 1340 1341 1343 1344 1346 1346 1347 1348 1349 1350 1351 1351 1352 1353 1355 1356 1358 1361 1363 1365 1366 1368 1369 1370 1372 1373 1375 1376 1378 1379 1380 1381 1382 1383 1383 1383 1383 1383 1383 1383 1383 1382 1382
1434 1433 1431 1429 1427 1425 1422 1420 1417 1414 1411 1408 1405 1402 1399 1396 1393 1389 1386 1383 1380 1377 1375 1372 1370 1367 1364 1361 1358 1357 1356 1354 1353 1351 1349 1348 1347 1347 1346 1345 1345 1345 1345 1345 1346 1346 1347 1348 1349 1349 1349 1351 1352 1353 1353 1353 1354 1356 1358 1361 1363 1364 1366 1366 1367 1369 1370 1371 1373 1374 1375 1375 1376 1377 1377 1378 1378 1378 1377 1378 1378 1377 1377 1377 1377
1434 1432 1430 1429 1427 1425 1422 1420 1418 1415 1413 1410 1407 1404 1402 1399 1396 1393 1390 1387 1384 1382 1379 1376 1374 1372 1369 1366 1364 1362 1361 1359 1358 1356 1355 1354 1353 1352 1351 1350 1349 1348 1348 1348 1348 1349 1349 1350 1350 1351 1351 1352 1353 1353 1353 1354 1355 1357 1359 1361 1362 1364 1364 1365 1366 1367 1369 1370 1371 1371 1372 1372 1372 1373 1373 1373 1373 1373 1373 1373 1373 1373 1373 1372 1372
1433 1431 1430 1428 1426 1424 1423 1421 1418 1416 1414 1411 1409 1406 1404 1401 1399 1396 1393 1391 1388 1386 1383 1381 1378 1376 1374 1372 1370 1368 1366 1364 1362 1361 1359 1358 1357 1357 1356 1355 1353 1353 1352 1351 1351 1351 1351 1351 1352 1352 1353 1354 1354 1354 1355 1355 1356 1358 1360 1361 1362 1363 1364 1365 1366 1367 1368 1369 1369 1370 1370 1370 1370 1370 1370 1370 1370 1370 1369 1369 1369 1369 1368 1368 1368
1432 1430 1429 1427 1426 1424 1422 1420 1419 1417 1415 1413 1410 1408 1406 1403 1401 1399 1396 1394 1392 1389 1387 1385 1382 1380 1378 1376 1374 1373 1371 1369 1368 1366 1365 1363 1362 1361 1360 1359 1358 1357 1356 1355 1355 1355 1355 1355 1355 1355 1356 1356 1356 1356 1357 1357 1359 1360 1361 1362 1363 1364 1365 1366 1367 1368 1368 1368 1369 1369 1369 1369 1369 1369 1369 1368 1368 1367 1367 1367 1366 1366 1365 1365 1365
1430 1429 1428 1426 1425 1423 1421 1419 1418 1416 1415 1413 1411 1409 1407 1405 1403 1401 1399 1396 1394 1392 1391 1389 1386 1385 1383 1381 1379 1377 1376 1374 1373 1371 1370 1369 1367 1366 1365 1363 1362 1361 1360 1359 1359 1359 1359 1359 1359 1359 1358 1358 1358 1359 1359 1360 1361 1362 1363 1363 1364 1365 1366 1366 1367 1367 1368 1368 1368 1368 1368 1368 1369 1368 1368 1367 1367 1366 1366 1365 1365 1364 1364 1363 1363
1429 1428 1426 1425 1424 1422 1421 1419 1417 1416 1414 1413 1411 1410 1408 1407 1405 1403 1401 1399 1397 1395 1393 1391 1390 1388 1386 1385 1383 1381 1380 1378 1376 1375 1373 1372 1371 1370 1369 1367 1366 1365 1364 1363 1362 1362 1362 1362 1361 1361 1361 1361 1361 1362 1362 1363 1363 1363 1364 1364 1365 1366 1366 1366 1367 1367 1367 1367 1368 1368 1368 1368 1368 1368 1367 1367 1367 1366 1365 1364 1364 1363 1363 1362 1362
1428 1426 1425 1424 1422 1421 1419 1418 1416 1415 1414 1412 1411 1410 1408 1407 1405 1404 1402 1400 1399 1397 1395 1393 1392 1390 1389 1387 1386 1384 1382 1381 1379 1378 1376 1375 1373 1372 1371 1370 1368 1367 1366 1366 1365 1365 1364 1364 1364 1363 1363 1363 1363 1363 1364 1364 1364 1364 1365 1365 1366 1366 1366 1366 1366 1367 1367 1367 1367 1367 1367 1367 1367 1367 1367 1366 1366 1365 1365 1364 1363 1363 1362 1362 1361